Yamba Observation History
Time Wind Speed Temp Pressure Rel. Hum Rain
18/11:30pm NW 5-8 kts 13.5°c 1019.8 hPa 71% 0.0mm
18/11:00pm NW 5-7 kts 13.6°c 1019.7 hPa 68% 0.0mm
18/10:30pm NNW 5-6 kts 13.8°c 1019.7 hPa 69% 0.0mm
18/10:00pm WNW 6-8 kts 14.2°c 1020.0 hPa 64% 0.0mm
18/09:30pm W 6-8 kts 14.9°c 1020.0 hPa 61% 0.0mm
18/09:00pm NW 6-8 kts 14.8°c 1020.0 hPa 68% 0.0mm
18/08:30pm NW 6-8 kts 15.0°c 1020.0 hPa 71% 0.0mm
18/08:00pm N 4-7 kts 17.1°c 1019.7 hPa 65% 0.0mm
18/07:30pm NNE 6-10 kts 17.9°c 1019.3 hPa 57% 0.0mm
18/07:00pm NE 6-10 kts 18.8°c 1019.1 hPa 53% 0.0mm
18/06:30pm ENE 7-10 kts 18.6°c 1018.7 hPa 48% 0.0mm
18/06:00pm E 7-11 kts 18.8°c 1018.6 hPa 49% 0.0mm
18/05:30pm E 5-8 kts 18.3°c 1018.4 hPa 57% 0.0mm
18/05:00pm E 5-7 kts 18.8°c 1018.3 hPa 53% 0.0mm
18/04:30pm E 4-6 kts 18.9°c 1018.2 hPa 52% 0.0mm
18/04:00pm E 3-5 kts 19.5°c 1018.3 hPa 58% 0.0mm
18/03:30pm ESE 5-6 kts 20.3°c 1018.1 hPa 48% 0.0mm
18/03:00pm SSE 5-7 kts 21.3°c 1018.2 hPa 31% 0.0mm
18/02:30pm E 3-5 kts 22.2°c 1018.3 hPa 33% 0.0mm
18/02:00pm S 2-4 kts 22.5°c 1018.3 hPa 24% 0.0mm
18/01:30pm WNW 4-7 kts 22.5°c 1018.5 hPa 26% 0.0mm
18/01:00pm WNW 5-8 kts 22.7°c 1018.8 hPa 28% 0.0mm
18/12:30pm WNW 6-10 kts 22.6°c 1019.2 hPa 28% 0.0mm
18/12:00pm WNW 6-9 kts 21.4°c 1019.5 hPa 26% 0.0mm
18/11:30am WNW 6-10 kts 21.2°c 1020.0 hPa 32% 0.0mm
18/11:00am NW 5-9 kts 20.5°c 1020.4 hPa 39% 0.0mm
18/10:30am NW 5-8 kts 18.9°c 1020.7 hPa 41% 0.0mm
18/10:00am NW 7-11 kts 17.2°c 1020.5 hPa 49% 0.0mm
18/09:30am WNW 8-11 kts 15.0°c 1020.7 hPa 51% 0.0mm
18/09:00am WNW 6-8 kts 13.6°c 1020.7 hPa 58% 0.0mm
18/08:30am W 7-9 kts 11.6°c 1020.5 hPa 65% 0.0mm
18/08:00am WSW 7-9 kts 10.5°c 1020.5 hPa 64% 0.0mm
18/07:30am W 8-10 kts 9.9°c 1020.0 hPa 63% 0.0mm
18/07:00am WSW 8-11 kts 8.8°c 1019.7 hPa 70% 0.0mm
18/06:30am W 8-9 kts 9.4°c 1019.1 hPa 65% 0.0mm
18/06:00am W 7-10 kts 8.6°c 1018.6 hPa 72% 0.0mm
18/05:30am W 7-9 kts 8.9°c 1018.5 hPa 74% 0.0mm
18/05:00am W 8-10 kts 8.8°c 1018.3 hPa 73% 0.0mm
18/04:30am WSW 7-9 kts 9.5°c 1018.6 hPa 65% 0.0mm
18/04:00am WSW 7-10 kts 9.3°c 1018.4 hPa 69% 0.0mm
18/03:30am WSW 4-6 kts 9.1°c 1018.5 hPa 74% 0.0mm
18/03:00am WSW 6-8 kts 9.3°c 1018.3 hPa 77% 0.0mm
18/02:30am W 7-9 kts 10.6°c 1018.3 hPa 68% 0.0mm
18/02:00am WNW 7-10 kts 10.9°c 1018.0 hPa 67% 0.0mm
18/01:30am NW 7-9 kts 11.8°c 1017.9 hPa 63% 0.0mm
18/01:00am NW 6-8 kts 11.7°c 1018.2 hPa 68% 0.0mm
18/12:30am NW 5-7 kts 12.0°c 1018.2 hPa 78% 0.0mm
18/12:00am WNW 5-7 kts 12.1°c 1018.3 hPa 74% 0.0mm
Time Wind Speed Temp Pressure Rel. Hum Rain
17/11:30pm NW 6-8 kts 12.5°c 1018.5 hPa 71% 0.0mm
17/11:00pm NW 5-8 kts 13.1°c 1018.5 hPa 71% 0.0mm
17/10:30pm NW 7-10 kts 13.6°c 1018.4 hPa 64% 0.0mm
17/10:00pm NNW 8-11 kts 14.3°c 1018.0 hPa 57% 0.0mm
17/09:30pm NNW 9-14 kts 14.3°c 1018.0 hPa 62% 0.0mm
17/09:00pm NNW 8-11 kts 14.3°c 1018.3 hPa 68% 0.0mm
17/08:30pm NNW 7-9 kts 15.0°c 1018.2 hPa 63% 0.0mm
17/08:00pm NNW 7-9 kts 15.1°c 1018.2 hPa 69% 0.0mm
17/07:30pm NNW 6-8 kts 15.7°c 1017.9 hPa 74% 0.0mm
17/07:00pm N 4-7 kts 17.0°c 1017.7 hPa 65% 0.0mm
17/06:30pm NNE 5-7 kts 17.3°c 1017.5 hPa 60% 0.0mm
17/06:00pm NE 5-8 kts 18.1°c 1017.3 hPa 54% 0.0mm
17/05:30pm ENE 5-7 kts 18.1°c 1017.2 hPa 56% 0.0mm
17/05:00pm NE 5-7 kts 17.9°c 1017.0 hPa 59% 0.0mm
17/04:30pm ENE 4-7 kts 18.2°c 1016.9 hPa 54% 0.0mm
17/04:00pm NNE 4-7 kts 18.9°c 1016.8 hPa 51% 0.0mm
17/03:30pm NE 4-7 kts 19.9°c 1017.0 hPa 49% 0.0mm
17/03:00pm E 4-6 kts 19.9°c 1016.9 hPa 49% 0.0mm
17/02:30pm ESE 4-6 kts 20.1°c 1017.1 hPa 51% 0.0mm
17/02:00pm ESE 4-5 kts 19.7°c 1017.4 hPa 47% 0.0mm
17/01:30pm ESE 3-5 kts 20.6°c 1017.7 hPa 40% 0.0mm
17/01:00pm NNW 4-6 kts 21.8°c 1017.7 hPa 37% 0.0mm
17/12:30pm NW 4-5 kts 21.3°c 1018.3 hPa 33% 0.0mm
17/12:00pm WNW 5-7 kts 20.2°c 1018.8 hPa 35% 0.0mm
17/11:30am W 6-11 kts 18.8°c 1019.2 hPa 38% 0.0mm
17/11:00am W 7-10 kts 17.6°c 1019.7 hPa 40% 0.0mm
17/10:30am WNW 7-9 kts 16.3°c 1019.9 hPa 42% 0.0mm
17/10:00am W 6-9 kts 14.9°c 1020.1 hPa 45% 0.0mm
17/09:30am W 6-10 kts 13.3°c 1019.9 hPa 45% 0.0mm
17/09:00am W 5-9 kts 12.7°c 1019.5 hPa 48% 0.0mm
17/08:30am W 7-9 kts 11.0°c 1019.3 hPa 54% 0.0mm
17/08:00am W 8-10 kts 9.3°c 1019.2 hPa 59% 0.0mm
17/07:30am W 7-9 kts 8.7°c 1018.8 hPa 60% 0.0mm
17/07:00am W 7-10 kts 8.1°c 1018.7 hPa 61% 0.0mm
17/06:30am WSW 5-8 kts 8.2°c 1018.2 hPa 61% 0.0mm
17/06:00am W 7-8 kts 8.3°c 1017.7 hPa 67% 0.0mm
17/05:30am WNW 7-8 kts 8.3°c 1017.2 hPa 68% 0.0mm
17/05:00am W 6-8 kts 8.6°c 1017.0 hPa 63% 0.0mm
17/04:30am W 6-7 kts 9.0°c 1016.9 hPa 68% 0.0mm
17/04:00am W 6-8 kts 9.6°c 1016.8 hPa 58% 0.0mm
17/03:30am WNW 6-7 kts 9.2°c 1016.8 hPa 58% 0.0mm
17/03:00am WNW 6-7 kts 9.2°c 1016.8 hPa 61% 0.0mm
17/02:30am W 5-7 kts 9.5°c 1017.0 hPa 58% 0.0mm
17/02:00am W 6-7 kts 9.4°c 1016.9 hPa 64% 0.0mm
17/01:30am W 5-6 kts 9.9°c 1017.1 hPa 62% 0.0mm
17/01:00am WSW 4-7 kts 10.8°c 1017.2 hPa 50% 0.0mm
17/12:30am WSW 5-9 kts 11.2°c 1016.9 hPa 51% 0.0mm
17/12:00am WSW 4-6 kts 10.2°c 1016.8 hPa 65% 0.0mm
Time Wind Speed Temp Pressure Rel. Hum Rain
16/11:30pm W 4-6 kts 10.8°c 1016.7 hPa 67% 0.0mm
16/11:00pm W 5-8 kts 11.1°c 1016.5 hPa 69% 0.0mm
16/10:30pm SW 4-7 kts 11.6°c 1016.5 hPa 67% 0.0mm
16/10:00pm SW 5-7 kts 12.2°c 1016.2 hPa 62% 0.0mm
16/09:30pm WSW 4-6 kts 12.4°c 1015.9 hPa 52% 0.0mm
16/09:00pm W 4-5 kts 13.0°c 1015.5 hPa 48% 0.0mm
16/08:30pm SW 6-8 kts 13.8°c 1015.1 hPa 49% 0.0mm
16/08:00pm SW 6-10 kts 14.3°c 1014.8 hPa 46% 0.0mm
16/07:30pm W 6-8 kts 14.6°c 1014.3 hPa 52% 0.0mm
16/07:00pm NW 4-5 kts 14.4°c 1013.8 hPa 53% 0.0mm
16/06:30pm NNW 5-7 kts 14.9°c 1013.1 hPa 53% 0.0mm
16/06:00pm NNW 4-6 kts 15.1°c 1012.8 hPa 57% 0.0mm
16/05:30pm NW 4-5 kts 16.3°c 1012.4 hPa 53% 0.0mm
16/05:00pm NNW 4-5 kts 17.1°c 1011.9 hPa 55% 0.0mm
16/04:30pm NNW 3-4 kts 18.7°c 1011.6 hPa 43% 0.0mm
16/04:00pm ESE 4-6 kts 19.0°c 1011.4 hPa 49% 0.0mm
16/03:30pm SE 4-6 kts 19.3°c 1011.5 hPa 47% 0.0mm
16/03:00pm ESE 3-6 kts 20.3°c 1011.4 hPa 37% 0.0mm
16/02:30pm NNE 4-6 kts 21.1°c 1011.4 hPa 34% 0.0mm
16/02:00pm NNW 6-9 kts 21.4°c 1011.6 hPa 35% 0.0mm
16/01:30pm NNW 6-8 kts 21.2°c 1011.8 hPa 35% 0.0mm
16/01:00pm NNW 6-9 kts 20.9°c 1012.2 hPa 36% 0.0mm
16/12:30pm NNW 6-9 kts 20.5°c 1012.8 hPa 38% 0.0mm
16/12:00pm NNW 6-10 kts 20.0°c 1013.3 hPa 38% 0.0mm
16/11:30am NNW 5-7 kts 19.7°c 1014.0 hPa 49% 0.0mm
16/11:00am NNW 6-8 kts 18.6°c 1014.7 hPa 52% 0.0mm
16/10:30am NNW 6-7 kts 18.1°c 1015.3 hPa 53% 0.0mm
16/10:00am NNW 7-9 kts 17.6°c 1015.6 hPa 56% 0.0mm
16/09:30am NW 6-10 kts 16.5°c 1015.7 hPa 58% 0.0mm
16/09:00am NW 5-8 kts 14.9°c 1015.7 hPa 59% 0.0mm
16/08:30am WNW 7-10 kts 13.4°c 1015.5 hPa 63% 0.0mm
16/08:00am NW 6-9 kts 12.7°c 1015.3 hPa 73% 0.0mm
16/07:30am NNW 7-10 kts 12.1°c 1015.3 hPa 73% 0.0mm
16/07:00am NW 7-9 kts 10.9°c 1015.4 hPa 80% 0.0mm
16/06:30am NW 7-9 kts 9.4°c 1015.2 hPa 74% 0.0mm
16/06:00am NW 7-9 kts 9.0°c 1015.1 hPa 74% 0.0mm
16/05:30am NW 6-9 kts 9.0°c 1014.5 hPa 74% 0.0mm
16/05:00am WNW 8-9 kts 9.0°c 1014.6 hPa 71% 0.0mm
16/04:30am WNW 7-9 kts 9.3°c 1014.5 hPa 69% 0.0mm
16/04:00am WNW 8-11 kts 9.7°c 1014.4 hPa 68% 0.0mm
16/03:30am W 8-10 kts 9.5°c 1014.7 hPa 73% 0.0mm
16/03:00am WNW 7-9 kts 10.5°c 1014.8 hPa 74% 0.0mm
16/02:30am WNW 7-9 kts 10.6°c 1014.9 hPa 71% 0.0mm
16/02:00am WNW 7-9 kts 10.9°c 1015.2 hPa 73% 0.0mm
16/01:30am NW 6-9 kts 10.7°c 1015.4 hPa 71% 0.0mm
16/01:00am WNW 7-9 kts 10.6°c 1015.6 hPa 60% 0.0mm
16/12:30am WNW 7-9 kts 10.9°c 1015.5 hPa 57% 0.0mm
16/12:00am WNW 7-10 kts 11.6°c 1015.7 hPa 56% 0.0mm